Location: Arborea
(39.7744°N, 8.5819°E)
Time: 00:39:43
(UTC+00:00)

SL-19 R/B - Pass Details

Date: 24 October 2021
Orbit: 874 x 1209 km, 100.6° (Epoch: 06 December)

Event Time Altitude Azimuth Distance (km) Brightness Sun altitude
Rises 17:01:59 0° 18° (NNE) 3,530 7.1 -6.2°
Reaches altitude 10° 17:04:26 10° 21° (NNE) 2,562 6.4 -6.6°
Maximum altitude 17:10:02 67° 104° (ESE) 944 4.3 -7.7°
Drops below altitude 10° 17:15:33 10° 187° (S) 2,526 6.9 -8.7°
Sets 17:17:57 0° 190° (S) 3,476 7.6 -9.2°
